Location: São Paulo
(23.5507°S, 46.6334°W)
Time: 16:51:41
(UTC-03:00)

Vanguard 1 Rocket - Visible Passes

Search period start: 15 February 2026 00:00
Search period end: 25 February 2026 00:00
Orbit: 652 x 4215 km, 34.3° (Epoch: 12 February)

Date Brightness Start Highest point End Pass type
(mag) Time Alt. Az. Time Alt. Az. Time Alt. Az.
15 Feb 9.0 02:33:46 56° SSW 02:34:18 57° SSW 02:42:08 10° ESE visible
15 Feb 8.8 04:53:42 10° WSW 05:01:39 35° S 05:06:36 10° ESE visible
15 Feb 11.0 20:01:56 10° N 20:18:27 21° NE 20:20:24 21° NE visible
15 Feb 11.0 22:27:13 10° NW 22:37:41 30° NNW 22:37:41 30° NNW visible
16 Feb 9.6 01:25:07 44° SE 01:25:07 44° SE 01:30:19 10° ESE visible
16 Feb 9.1 03:42:16 22° WSW 03:48:29 41° S 03:54:41 10° ESE visible
16 Feb 11.3 18:55:52 10° NNE 19:01:38 11° NE 19:07:14 10° NE visible
16 Feb 10.7 21:12:22 10° NNW 21:30:26 37° NNE 21:30:26 37° NNE visible
16 Feb 10.5 23:42:55 10° NW 00:16:27 18° ESE 00:18:12 10° ESE visible
17 Feb 9.2 02:33:35 50° SW 02:34:57 52° SSW 02:42:53 10° ESE visible
17 Feb 8.7 04:54:12 10° WSW 05:02:36 39° S 05:07:40 10° ESE visible
17 Feb 10.8 19:59:16 10° N 20:18:50 27° NE 20:23:18 26° NE visible
17 Feb 10.7 22:26:13 10° NW 23:07:46 - ESE 22:40:36 40° NNW visible
18 Feb 9.5 01:24:54 48° SE 01:24:54 48° SE 01:30:59 10° ESE visible
18 Feb 9.1 03:42:03 20° WSW 03:49:22 41° S 03:55:39 10° ESE visible
18 Feb 11.2 18:49:11 10° N 19:02:22 16° NE 19:14:47 10° ENE visible
18 Feb 10.4 21:10:56 10° NNW 21:33:36 48° NNE 21:33:36 48° NNE visible
18 Feb 10.4 23:42:40 10° WNW 00:16:14 22° ESE 00:18:50 10° ESE visible
19 Feb 9.3 02:33:22 45° SW 02:35:40 49° SSW 02:43:42 10° ESE visible
19 Feb 8.5 04:54:37 10° WSW 05:03:31 46° S 05:08:43 10° E visible
19 Feb 10.6 19:57:16 10° NNW 20:18:59 34° NE 20:26:44 29° ENE visible
19 Feb 10.4 22:25:31 10° NW 23:07:33 - ESE 22:44:03 55° NW visible
20 Feb 9.6 01:01:17 10° W 01:24:41 51° SSE 01:31:42 10° ESE visible
20 Feb 9.1 03:41:50 18° WSW 03:50:17 44° S 03:56:40 10° ESE visible
20 Feb 11.2 18:45:47 10° N 19:02:42 22° NE 19:18:37 10° E visible
20 Feb 10.1 21:09:50 10° NW 21:35:09 58° NE 21:37:16 56° NE visible
20 Feb 10.4 23:42:39 10° WNW 00:16:01 26° ESE 00:19:27 10° ESE visible
21 Feb 9.4 02:33:10 41° SW 02:36:27 48° S 02:44:36 10° ESE visible
21 Feb 8.3 04:54:56 10° WSW 05:04:24 57° SSE 05:09:44 10° E visible
21 Feb 10.7 19:55:43 10° NNW 20:18:56 42° NE 20:30:35 27° E visible
21 Feb 10.1 22:25:05 10° NW 23:07:23 - ESE 22:47:55 73° NW visible
22 Feb 9.6 01:01:48 10° W 01:24:32 52° SSE 01:32:27 10° ESE visible
22 Feb 9.0 03:41:41 16° WSW 03:51:12 48° S 03:57:43 10° E visible
22 Feb 11.1 18:43:28 10° N 19:02:44 28° NE 19:21:06 10° E visible
22 Feb 10.1 21:09:01 10° NW 21:35:05 67° NE 21:41:16 54° E visible
22 Feb 10.3 23:42:51 10° WNW 00:15:56 29° SE 00:20:06 10° ESE visible
23 Feb 9.4 02:33:05 39° SW 02:37:19 49° S 02:45:34 10° ESE visible
23 Feb 8.0 04:55:12 10° WSW 05:05:10 73° SSE 05:10:37 10° ENE visible
23 Feb 10.6 19:54:32 10° NNW 20:18:44 50° NE 20:34:37 21° E visible
23 Feb 9.9 22:24:54 10° WNW 22:51:15 86° SSW 22:51:57 85° SSE visible
24 Feb 9.7 01:02:23 10° W 01:24:36 53° SSE 01:33:17 10° ESE visible
24 Feb 8.8 03:41:45 16° WSW 03:52:06 56° SSE 03:58:44 10° E visible
24 Feb 11.0 18:41:46 10° NNW 19:02:33 35° NE 19:22:47 10° E visible
24 Feb 10.2 21:08:29 10° NW 21:34:58 77° NNE 21:45:13 42° ESE visible
